Regional Weather Roundup
Issued by NWS

Home | Current Version | Previous Version | Text Only | Print | Product List | Glossary Off
Versions: 1 2 3 4 5 6 7 8 9 10 11 12 13 14 15 16 17 18 19 20 21 22 23 24 25 26 27 28 29 30 31 32 33 34 35 36 37 38 39 40 41 42 43 44 45 46 47 48 49

000
ASUS45 KBOU 242307
RWRCO

WEATHER ROUNDUP FOR COLORADO
NATIONAL WEATHER SERVICE DENVER/BOULDER CO
400 PM MST WED DEC 24 2014

NOTE: "FAIR" INDICATES FEW OR NO CLOUDS BELOW 12000 FEET WITH NO
SIGNIFICANT WEATHER AND/OR OBSTRUCTIONS TO VISIBILITY.

COZ001>005-013-030-031-250000-
...NORTHWEST COLORADO...

CITY           SKY/WX    TMP DP  RH WIND       PRES   REMARKS
CRAIG          MOCLDY    27  13  55 NE8       29.85F WCI  19
HAYDEN         MOCLDY    23   9  54 E10       29.84F WCI  12
MEEKER         MOCLDY    24  14  65 CALM      29.86F
MOUNT WERNER   NOT AVBL
STEAMBOAT SPGS MOCLDY    20   9  61 N3        29.85F
WALDEN         MOCLDY    23  10  58 S15       29.77F WCI  10
$$

COZ006>008-011-250000-
...WEST CENTRAL VALLEYS...

CITY           SKY/WX    TMP DP  RH WIND       PRES   REMARKS
GRAND JUNCTION MOCLDY    33  11  39 CALM      29.95F
MONTROSE       PTCLDY    34  10  37 CALM      29.95F
EAGLE          MOCLDY    27   7  43 CALM      29.94F
RIFLE          MOCLDY    29  11  47 CALM      29.94F
DELTA          PTCLDY    37  10  33 CALM      29.95F
NUCLA          PTCLDY    36  12  38 CALM      29.97F
$$

COZ017>023-064>068-250000-
...SOUTHWEST COLORADO...

CITY           SKY/WX    TMP DP  RH WIND       PRES   REMARKS
DURANGO        CLEAR     34   4  28 CALM      29.98S
CORTEZ         CLEAR     35  13  40 SW9       29.98F WCI  28
PAGOSA SPRINGS CLEAR     33   0  25 SW3       29.97S
TELLURIDE      PTCLDY    31  11  44 W8        29.94F WCI  24
WOLF CREEK PAS CLEAR     23   7  50 MISG      29.94F
$$

COZ009-010-012-014-032>034-037-058>063-250000-
...CENTRAL COLORADO...

CITY           SKY/WX    TMP DP  RH WIND       PRES   REMARKS
ASPEN          CLEAR     20   8  60 NW5       29.89F WCI  13
BUENA VISTA    CLEAR     37  15  40 SE6       29.79F
COPPER MTN     CLEAR     23  10  58 SW9G20    29.87F WCI  13
BERTHOUD PASS  FAIR      16  10  79 MISG      29.77R
COTTONWOOD PAS CLEAR     36   9  32 NW10G16   29.82F
GUNNISON       PTCLDY     9  -6  52 NE6       30.00F WCI  -1
KREMMLING      PTCLDY    12   3  67 CALM      29.90F
LEADVILLE      CLEAR     30   9  41 VRB7      29.83F WCI  23
MONARCH PASS   CLEAR     16  10  79 W38       29.95F WCI  -6
SALIDA         CLEAR     37  10  33 SW20G28   29.87S
SUNLIGHT       PTCLDY   N/A N/A N/A MISG      29.89F
WILKERSON PASS PTCLDY    28  12  50 W6        29.84F WCI  22
$$

COZ069>075-250000-
...SAN LUIS VALLEY/SANGRE DE CRISTO MOUNTAINS...

CITY           SKY/WX    TMP DP  RH WIND       PRES   REMARKS
ALAMOSA        CLEAR     30   2  30 SE5       29.91F WCI  25
LA VETA PASS   PTCLDY    23   5  46 S17G35    29.82F WCI   9
SAGUACHE       PTCLDY    18  10  73 E3        29.94F
$$

COZ035-036-038>040-250000-
...NORTHERN COLORADO FRONT RANGE...

CITY           SKY/WX    TMP DP  RH WIND       PRES   REMARKS
DENVER INTL AP CLOUDY    48  13  24 NW3       29.62F
DMNS CITY PARK   N/A     50  18  27 SW5       29.63S
AURORA         MOCLDY    43  18  37 S8        29.64F
FRONT RANGE AP NOT AVBL
ERIE MUNI ARPT   N/A     53  11  18 MISG      29.63S
BOULDER MUN AP CLOUDY    52  14  22 CALM      29.63R
CENTENNIAL     CLOUDY    45  23  42 S9        29.64F
BROOMFIELD     NOT AVBL
FORT COLLINS   MOCLDY    39  16  38 N3        29.64F
LONGMONT       MOCLDY    45  17  31 N3        29.64S
$$

COZ041-046-047-076>085-087-088-250000-
...PIKES PEAK/PALMER DIVIDE AND SOUTHERN FOOTHILLS...

CITY           SKY/WX    TMP DP  RH WIND       PRES   REMARKS
COLO. SPRINGS  CLOUDY    36   9  32 SE7       29.71F
A. F. ACADEMY  CLOUDY    38  14  36 SW8       29.70F
ELLICOTT       NOT AVBL
FALCON         CLOUDY    36  13  39 SW3       29.72F
FORT CARSON    CLOUDY    37  13  37 S6        29.70F
LIMON          PTCLDY    38  20  48 S8        29.67F
MONUMENT HILL  CLOUDY    37  19  48 S9        29.67F
TRINIDAD       PTCLDY    32  18  56 NW6       29.75F WCI  26
$$

COZ042>045-048>051-090-091-250000-
...NORTHEAST COLORADO...

CITY           SKY/WX    TMP DP  RH WIND       PRES   REMARKS
GREELEY ARPT   MOCLDY    39  14  35 CALM      29.62F
AKRON          MOCLDY    40  24  53 S10       29.64F
BURLINGTON     CLEAR     38  19  46 SW13      29.70F
WRAY           PTCLDY    40  26  56 SW7       29.67F
STERLING       MOCLDY    34  27  75 S5        29.63F WCI  30
HOLYOKE        PTCLDY    37  28  70 SW9       29.66F
FORT MORGAN    MOCLDY    33  21  61 NE5       29.63F WCI  28
$$

COZ086-089-092>099-250000-
...SOUTHEAST COLORADO...

CITY           SKY/WX    TMP DP  RH WIND       PRES   REMARKS
PUEBLO         MOCLDY    42  15  33 E5        29.71F
LA JUNTA       CLEAR     46  17  31 S8        29.72F
LAMAR          CLEAR     48  12  23 S9        29.74F
SPRINGFIELD      N/A     44   9  23 SW12      29.77F
$$


USA.gov is the U.S. government's official web portal to all federal, state and local government web resources and services.